Change the Weather History Date:

Saturday, January 5, 2013

  Actual Average (KWRI) Record (KWRI)
Temperature  
Mean Temperature 34 °F -  
Max Temperature 41 °F 41 °F 64 °F (2007)
Min Temperature 28 °F 25 °F 9 °F (2014)
Degree Days  
Heating Degree Days 30    
Moisture  
Dew Point 20 °F    
Average Humidity 57    
Maximum Humidity 78    
Minimum Humidity 45    
Precipitation  
Precipitation 0.00 in - - ()
Sea Level Pressure  
Sea Level Pressure 30.25 in    
Wind  
Wind Speed 6 mph (West)    
Max Wind Speed 13 mph    
Max Gust Speed 20 mph    
Visibility 10 miles    
Events      
Averages and records for this station are not official NWS values.
T = Trace of Precipitation, MM = Missing Value Source: NWS Daily Summary

Daily Weather History Graph

Daily Weather History Graph

Search for Another Location

Airport or City:

Trip Planner

Search our weather history database for the weather conditions in past years. The results will help you decide how hot, cold, wet, or windy it might be!

Date:

Astronomy

Jan. 05, 2013 Rise Set
Actual Time 7:21 AM EST 4:48 PM EST
Civil Twilight 6:51 AM EST 5:19 PM EST
Nautical Twilight 6:17 AM EST 5:52 PM EST
Astronomical Twilight 5:44 AM EST 6:25 PM EST
Moon 12:25 AM EST (1/5) 11:37 AM EST (1/5)
Length of Visible Light 10h 28m
Length of Day
9h 27m
Last Quarter, 44% of the Moon is Illuminated
Jan 5
Last Quarter
Jan 11
New
Jan 18
First Quarter
Jan 26
Full
Feb 3
Last Quarter

Hourly Weather History & Observations

Time (EST) Temp. Windchill Dew Point Humidity Pressure Visibility Wind Dir Wind Speed Gust Speed Precip Events Conditions
12:54 AM 33.1 °F 26.9 °F 19.9 °F 59% 30.09 in 10.0 mi WSW 6.9 mph - N/A   Clear
1:54 AM 33.1 °F 26.9 °F 19.0 °F 56% 30.11 in 10.0 mi West 6.9 mph - N/A   Clear
2:54 AM 33.1 °F 28.7 °F 19.0 °F 56% 30.13 in 10.0 mi West 4.6 mph - N/A   Clear
3:54 AM 33.1 °F 26.1 °F 18.0 °F 54% 30.16 in 10.0 mi West 8.1 mph - N/A   Clear
4:54 AM 32.0 °F 28.7 °F 18.0 °F 56% 30.19 in 10.0 mi WNW 3.5 mph - N/A   Clear
5:54 AM 30.9 °F 24.3 °F 18.0 °F 59% 30.23 in 10.0 mi NW 6.9 mph - N/A   Clear
6:54 AM 30.9 °F 25.2 °F 18.0 °F 59% 30.27 in 10.0 mi WNW 5.8 mph - N/A   Clear
7:54 AM 30.9 °F 25.2 °F 18.0 °F 59% 30.29 in 10.0 mi West 5.8 mph - N/A   Clear
8:54 AM 33.1 °F 23.9 °F 18.0 °F 54% 30.31 in 10.0 mi West 12.7 mph 17.3 mph N/A   Clear
9:54 AM 35.1 °F 26.4 °F 19.0 °F 52% 30.33 in 10.0 mi West 12.7 mph 18.4 mph N/A   Clear
10:54 AM 37.0 °F 28.9 °F 19.0 °F 48% 30.35 in 10.0 mi West 12.7 mph 19.6 mph N/A   Clear
11:54 AM 37.9 °F 32.7 °F 19.9 °F 48% 30.32 in 10.0 mi WNW 6.9 mph 18.4 mph N/A   Clear
12:54 PM 39.9 °F 33.4 °F 21.0 °F 47% 30.29 in 10.0 mi WNW 10.4 mph - N/A   Clear
1:54 PM 41.0 °F 36.4 °F 21.0 °F 45% 30.27 in 10.0 mi NW 6.9 mph - N/A   Clear
2:54 PM 41.0 °F 37.1 °F 21.0 °F 45% 30.28 in 10.0 mi West 5.8 mph - N/A   Clear
3:54 PM 39.9 °F 36.7 °F 19.9 °F 45% 30.28 in 10.0 mi NW 4.6 mph - N/A   Clear
4:54 PM 35.1 °F 32.2 °F 21.0 °F 57% 30.28 in 10.0 mi WSW 3.5 mph - N/A   Clear
5:54 PM 33.1 °F 30.0 °F 21.0 °F 61% 30.30 in 10.0 mi SW 3.5 mph - N/A   Clear
6:54 PM 35.1 °F 31.0 °F 21.0 °F 57% 30.30 in 10.0 mi SW 4.6 mph - N/A   Clear
7:54 PM 32.0 °F - 21.0 °F 64% 30.27 in 10.0 mi Calm Calm - N/A   Clear
8:54 PM 28.0 °F 24.2 °F 21.0 °F 75% 30.29 in 8.0 mi SW 3.5 mph - N/A   Clear
9:54 PM 28.9 °F - 23.0 °F 78% 30.25 in 8.0 mi Calm Calm - N/A   Clear
10:54 PM 30.9 °F - 23.0 °F 72% 30.25 in 8.0 mi Calm Calm - N/A   Mostly Cloudy
11:54 PM 30.9 °F - 23.0 °F 72% 30.25 in 8.0 mi Calm Calm - N/A   Scattered Clouds